Flag for Germany Weather past 2 weeks in Plettenberg, North Rhine-Westphalia, Germany

Now
43 °F

Passing clouds.


Feels Like: 39 °F
Forecast: 34 / 60 °F
Wind: 6 mph from North

Location: Dortmund / Wickede


UV Index: 3 (Moderate)

Visibility: N/A


Pressure: 29.98 "Hg

Humidity: 76%

Dew point: 36 °F

Location of PlettenbergLocation

Historic Weather in Plettenberg

°F

Plettenberg temperature yesterday

Maximum temperature yesterday: 52 °F (at 3:20 PM)
Minimum temperature yesterday: 41 °F (at 6:20 AM)
Average temperature yesterday: 46 °F

Past Weeks' High & Low Weather Summary

 TemperatureHumidityPressure
High70 °F (Apr 7, 5:20 PM)94% (Apr 5, 5:20 AM)30.45 "Hg (Apr 5, 5:20 AM)
Low30 °F (Apr 16, 5:20 AM)29% (Apr 17, 3:50 PM)29.68 "Hg (Apr 3, 9:20 PM)
Average52 °F67%30.06 "Hg
* Reported Apr 3 9:20 PM — Apr 18 9:50 PM, Plettenberg, Weather by CustomWeather, © 2014

Note: Actual official high and low records may vary slightly from our data, if they occured in-between our weather recording intervals... More about our weather records

Advertising

Historic Weather Conditions — Data for Previous 24 hours

 ConditionsComfort  
Time TempWeatherWind HumidityBarometerVisibility
9:50 PM
Apr 18
43 °FPassing clouds.6 mph76%29.98 "HgN/A
9:20 PM45 °FPassing clouds.9 mph66%29.95 "HgN/A
8:50 PM46 °FSunny.8 mph66%29.95 "Hg10 mi
8:20 PM46 °FSunny.13 mph66%29.95 "Hg10 mi
7:50 PM48 °FPassing clouds.13 mph62%29.95 "HgN/A
7:20 PM48 °FPassing clouds.10 mph62%29.95 "HgN/A
6:50 PM50 °FScattered clouds.14 mph58%29.95 "HgN/A
6:20 PM50 °FSunny.10 mph62%29.92 "Hg10 mi
5:50 PM52 °FPassing clouds.15 mph58%29.92 "HgN/A
5:20 PM50 °FSunny.14 mph54%29.95 "Hg10 mi
4:50 PM52 °FPassing clouds.13 mph54%29.92 "HgN/A
4:20 PM52 °FPassing clouds.14 mph54%29.95 "HgN/A
3:50 PM52 °FPassing clouds.13 mph50%29.95 "HgN/A
3:20 PM52 °FSunny.12 mph54%29.95 "Hg10 mi
2:50 PM50 °FSunny.12 mph50%29.95 "Hg10 mi
2:20 PM50 °FScattered clouds.12 mph62%29.95 "HgN/A
1:50 PM50 °FPassing clouds.15 mph62%29.95 "HgN/A
1:20 PM48 °FScattered clouds.10 mph62%29.95 "HgN/A
12:50 PM45 °FSprinkles. Partly sunny.14 mph71%29.95 "HgN/A
12:20 PM46 °FPartly sunny.16 mph66%29.95 "HgN/A
11:50 AM46 °FScattered clouds.10 mph66%29.92 "HgN/A
11:20 AM46 °FCool.8 mph66%29.95 "HgN/A
10:50 AM45 °FPartly sunny.10 mph76%29.92 "HgN/A
10:20 AM45 °FPartly sunny.8 mph76%29.92 "HgN/A
9:50 AM45 °FPartly sunny.9 mph76%29.92 "HgN/A
9:20 AM43 °FPartly sunny.8 mph81%29.92 "HgN/A
8:50 AM43 °FPartly sunny.8 mph87%29.92 "HgN/A
8:20 AM43 °FScattered clouds.7 mph81%29.92 "HgN/A
7:50 AM41 °FScattered clouds.8 mph87%29.92 "HgN/A
7:20 AM41 °FPassing clouds.6 mph87%29.89 "HgN/A
6:50 AM41 °FPassing clouds.8 mph87%29.89 "HgN/A
6:20 AM41 °FPassing clouds.7 mph87%29.89 "HgN/A
5:50 AM43 °FPassing clouds.9 mph87%29.89 "HgN/A
5:20 AM43 °FPassing clouds.9 mph87%29.89 "HgN/A
Weather by CustomWeather, © 2014

See weather overview